FORMOSAT7-1/COSMIC2-1

导读

FORMOSAT7-1/COSMIC2-1即福尔摩沙卫星七号一号,又属于宇宙掩星计划2号项目,于2019年6月25日发射,是中国台湾地区与美国合作的掩星气象观测卫星,通过全球定位系统掩星技术获取大气数据,可为气象预报、气候研究提供精准观测支持。

Basic Information
目录编号:
44349
目录名称:
FORMOSAT7-1/COSMIC2-1
国际标识:
2019-036L
轨道中心:
EARTH
卫星名称:
FORMOSAT7-1/COSMIC2-1
卫星全名:
--
卫星状态:
在轨 (已飞行2576 天)
发射日期:
2019-06-25 UTC
国别 :
(TW)
星等 :
--
Orbit Information
数据来源 国际轨道数据
星历时间: 2026-07-13T17:12:21+0800
19小时前
查看轨道信息
半长轴: 6955.523km
偏心率: 0.0001031
轨道倾角: 23.997°
近地点辐角 114.570°
升交点赤经 215.772°
平近点角 245.491°
近地点: 576.668km
远地点: 578.104km
周期: 96.218分钟
每日圈数: 14.966082
Detailed Information
使用方式:
暂无
2D Orbit Map
3D Orbit Map
Orbit Altitude Analysis Chart
Orbit Inclination Analysis Chart
Orbit Comprehensive Analysis Chart
View Comprehensive Chart